Wind_Speed
26 25 24 24 23 23 22 20 20 18 17 17 18 17 17 17 17 17 17 17 17 17 17 17 14 13 12 12 11 11 10 10 10 10 10 9 8 8 9 10 11 11 11 12
27 26 25 25 24 24 23 22 20 19 18 17 18 18 17 18 17 17 17 18 18 18 18 17 15 13 13 13 12 12 11 11 11 10 10 10 10 10 11 11 12 12 12 14
28 27 27 27 25 25 25 23 22 20 18 18 18 18 18 18 19 18 18 19 19 19 19 17 15 15 15 14 14 13 13 12 12 12 11 11 12 12 12 13 13 13 14 16
29 28 29 27 26 25 25 25 24 23 21 20 20 20 20 20 20 20 19 20 21 20 19 18 17 16 16 16 15 15 14 14 14 14 14 14 14 14 14 14 14 15 16 17
30 30 29 28 27 26 26 26 25 25 24 23 23 22 22 22 23 22 21 21 20 20 20 19 19 18 18 17 16 16 16 16 16 17 16 16 16 16 16 16 16 17 17 18
31 31 31 29 28 28 27 27 26 26 26 25 25 24 23 23 24 23 21 20 20 20 20 21 21 20 19 18 18 18 17 17 18 17 17 17 18 18 18 19 19 19 20 20
33 33 32 31 30 30 30 29 27 27 26 26 25 25 24 24 24 23 22 22 22 22 22 21 21 21 21 19 20 20 19 18 19 19 19 19 19 20 20 21 21 22 23 23
35 34 34 32 32 31 31 30 29 28 27 27 26 26 26 25 25 24 24 23 24 24 23 22 23 23 22 21 21 21 21 20 20 20 21 20 21 22 23 23 24 24 24 24
37 35 34 33 32 31 31 30 30 29 29 28 28 28 27 26 26 26 25 26 25 25 24 24 24 24 23 22 22 23 22 21 21 22 23 23 23 24 23 24 24 24 24 25
37 36 35 34 33 32 31 30 30 30 29 29 28 27 27 27 27 26 27 26 26 25 25 25 25 25 26 24 23 23 22 22 22 23 24 24 24 25 25 26 26 25 26 27
37 36 34 33 32 31 30 30 30 30 30 29 28 28 28 28 28 28 26 26 26 27 27 26 26 27 26 24 23 22 23 23 24 24 25 26 26 27 27 27 27 27 28 28
36 35 33 32 31 30 30 30 30 30 30 30 30 29 29 29 28 27 27 28 28 29 28 28 27 26 25 25 25 24 24 25 26 26 26 27 28 28 27 28 28 29 29 28
35 34 33 32 31 30 30 29 29 30 29 29 29 29 29 29 29 29 30 30 30 30 29 29 28 28 27 26 27 27 27 27 27 28 28 28 29 29 29 28 28 28 28 29
35 35 34 32 31 31 30 30 30 29 29 28 29 29 29 29 29 30 30 31 30 31 31 31 30 30 29 29 29 29 29 29 29 29 29 29 29 29 29 28 28 28 29 30
36 35 34 33 32 31 30 30 30 29 29 30 30 30 30 30 30 31 31 32 31 32 32 31 32 31 31 30 31 31 30 30 30 30 30 29 29 29 29 29 29 29 30 30
34 33 33 32 32 31 31 31 31 31 31 31 32 31 30 30 31 31 31 31 31 32 32 33 32 31 31 31 31 31 31 31 30 30 29 29 29 29 29 29 30 30 30 31
33 32 32 32 31 31 31 31 31 30 30 30 30 29 29 29 30 30 30 31 32 32 32 32 32 32 31 31 31 30 31 30 30 30 30 30 29 29 29 30 30 30 30 31
31 31 31 30 30 30 30 30 30 30 30 30 30 30 30 30 31 32 32 31 31 31 31 31 31 31 30 30 30 30 30 30 29 30 29 29 29 30 31 30 30 30 30 30
29 28 29 29 29 29 29 29 29 29 29 29 29 29 29 30 30 30 30 30 30 30 30 30 30 30 29 29 29 29 29 29 28 29 29 29 30 31 30 30 30 30 30 30
28 28 28 29 29 29 29 29 30 29 28 28 28 28 28 28 29 29 29 29 29 29 29 29 28 28 28 28 28 28 28 28 28 28 29 29 29 30 29 28 28 29 29 29
27 27 27 27 28 28 28 28 28 28 28 28 28 28 28 28 28 27 27 27 27 27 27 27 27 27 27 27 27 27 27 27 27 27 28 28 28 28 27 27 28 28 28 28
27 27 27 27 27 27 27 27 26 26 26 27 27 27 27 26 26 26 26 26 26 26 26 26 26 27 26 26 26 26 26 27 26 27 27 27 27 27 27 27 27 27 27 28
26 26 26 26 26 26 26 26 25 26 26 26 26 25 25 26 25 25 25 25 25 25 25 26 26 25 25 25 25 25 25 24 24 25 26 25 26 26 26 27 27 27 28 28
23 23 24 24 23 23 23 23 24 24 24 24 23 23 23 24 24 23 23 24 23 23 23 23 23 23 23 23 23 23 23 23 23 24 24 25 25 25 26 26 27 27 28 28
22 22 22 21 22 22 22 22 22 22 22 22 22 22 21 21 21 21 21 21 21 21 21 21 20 20 21 21 22 22 22 22 23 23 23 24 24 24 25 25 26 27 27 28
20 20 20 20 20 21 20 20 20 20 20 20 20 20 20 20 19 19 19 19 19 19 19 19 19 19 19 19 20 20 20 21 21 21 22 23 24 24 25 25 25 26 27 27
18 18 18 18 18 19 19 19 19 19 19 18 18 18 19 18 18 17 17 17 17 17 17 17 17 18 18 18 18 19 19 20 20 21 21 23 23 24 24 25 26 26 27 27
Wind_Direction
227 230 235 240 244 248 252 257 264 269 271 274 278 283 288 293 298 304 311 317 322 329 332 330 326 324 324 321 320 316 314 312 312 314 318 316 299 291 289 289 287 286 285 285
226 228 232 237 242 247 251 256 263 270 274 277 279 282 287 291 295 301 304 310 315 321 324 323 317 314 314 311 315 312 306 305 306 308 306 310 311 305 298 295 294 291 289 290
228 230 232 235 241 246 251 257 262 268 272 274 278 282 285 290 295 298 301 305 308 311 313 313 308 309 305 303 303 304 302 301 301 302 303 303 302 305 306 304 300 295 292 293
232 233 235 238 242 247 252 257 261 265 270 273 277 281 284 288 294 295 298 302 304 306 306 304 302 302 302 301 297 297 298 296 295 295 296 296 297 299 301 303 302 299 297 296
235 237 240 241 245 250 254 258 260 262 267 272 274 278 284 287 291 292 293 297 299 301 301 302 300 300 297 296 296 293 293 292 293 292 290 291 292 295 297 299 302 302 300 299
238 240 243 246 249 253 257 260 261 263 266 270 273 276 282 284 287 285 288 291 293 296 298 300 302 301 296 293 293 292 292 291 293 294 292 291 290 292 294 296 298 300 299 298
240 244 246 249 252 256 260 263 263 264 266 269 271 273 278 280 279 280 283 287 292 293 295 295 296 296 296 295 297 293 290 290 290 290 290 290 291 291 292 294 295 296 296 296
243 247 250 251 254 257 260 262 262 263 264 267 269 271 274 276 274 278 280 283 288 291 291 292 294 294 294 293 296 294 289 287 289 290 290 290 292 291 290 290 290 292 294 295
246 249 252 253 256 256 258 260 261 262 264 266 268 269 271 271 274 276 277 281 285 289 289 292 292 292 292 292 292 293 291 288 289 290 290 291 291 293 292 292 291 292 295 296
248 250 252 255 256 256 257 258 260 261 263 265 268 267 267 268 271 273 275 280 284 287 287 290 292 292 292 293 290 289 289 290 292 293 291 290 289 291 292 292 292 292 295 297
248 251 253 255 255 255 255 256 258 260 261 262 265 266 266 268 270 273 275 278 282 285 286 288 290 292 294 295 293 290 289 290 291 292 292 291 291 291 291 291 291 293 295 296
247 249 251 252 253 253 253 256 258 259 260 262 264 264 264 265 268 271 273 276 279 281 284 286 287 288 290 292 292 290 289 290 291 290 290 291 291 291 291 292 292 292 293 294
245 246 248 249 251 252 253 255 256 258 259 260 262 262 262 264 266 269 272 274 276 279 283 286 285 287 286 287 288 289 290 291 292 291 291 291 291 290 291 291 292 293 292 293
244 246 247 248 251 252 254 255 255 256 257 259 259 260 262 264 265 268 272 275 278 282 285 286 286 286 286 287 287 288 289 290 290 292 292 292 291 291 291 291 292 292 292 292
244 246 247 248 250 251 253 255 256 257 258 259 259 261 263 265 268 270 272 275 278 282 284 285 286 286 285 286 288 289 290 290 291 292 292 291 292 293 292 291 291 291 292 292
243 245 247 250 251 253 254 256 260 261 261 261 261 263 265 268 271 273 274 276 279 281 283 284 285 284 284 286 287 288 289 290 290 290 291 292 293 292 291 291 292 292 292 292
243 245 247 250 252 253 255 258 261 263 264 265 266 267 268 271 274 275 277 279 280 282 283 283 284 284 283 285 287 288 288 289 288 289 290 291 292 291 290 290 291 291 291 291
243 245 247 250 253 256 259 261 264 267 269 269 270 271 272 274 276 277 278 280 281 282 284 285 285 284 284 286 287 288 288 288 288 289 289 290 290 291 292 291 291 292 291 292
244 245 248 252 255 259 262 264 266 269 271 271 271 273 275 276 276 276 277 279 282 282 283 284 284 284 285 285 286 287 288 289 287 287 288 288 289 290 290 291 291 291 292 294
247 250 254 256 259 261 263 266 267 269 270 271 272 274 275 276 277 278 279 281 282 282 282 282 283 284 284 284 285 286 287 286 286 286 287 288 289 291 291 291 291 292 294 296
249 253 256 258 260 262 265 267 268 268 269 271 272 273 275 277 278 279 280 281 281 282 282 282 282 282 283 283 284 286 286 286 287 288 287 288 289 291 292 292 293 294 296 297
249 252 255 257 260 263 265 266 267 268 270 271 272 273 274 276 278 280 281 281 282 282 283 283 283 282 282 282 284 285 286 286 287 287 288 289 290 292 293 294 295 296 296 297
250 252 254 257 259 261 263 264 266 268 269 270 271 273 274 276 279 281 281 282 281 281 282 282 281 281 281 281 282 283 284 286 287 288 289 290 291 293 293 294 295 295 296 297
250 253 255 257 259 260 262 264 266 267 269 270 271 273 275 276 278 279 280 280 280 280 281 281 281 281 281 281 283 284 285 286 287 288 289 291 293 294 294 295 296 297 297 299
249 252 254 255 256 257 259 262 264 264 267 269 270 271 273 275 276 277 279 279 278 280 281 282 283 282 283 283 283 285 287 289 289 290 291 292 294 296 298 299 299 300 302 303
247 249 251 251 252 255 259 261 262 264 266 268 269 269 270 273 276 278 279 279 278 279 281 282 284 283 285 286 287 288 290 291 292 293 294 296 296 297 298 300 302 303 304 304
246 248 250 252 254 257 260 262 263 263 263 265 266 269 271 273 276 279 279 278 278 279 281 282 283 285 287 289 290 291 291 293 294 296 297 299 299 300 301 302 304 305 306 305
Height
5884 5887 5890 5892 5894 5896 5898 5900 5901 5903 5904 5905 5905 5906 5905 5905 5904 5903 5902 5900 5898 5896 5894 5892 5890 5888 5887 5885 5884 5882 5881 5880 5878 5877 5875 5874 5872 5872 5871 5870 5870 5869 5868 5867
5878 5882 5885 5887 5889 5892 5894 5895 5897 5899 5901 5901 5901 5902 5901 5901 5901 5900 5899 5897 5895 5893 5891 5889 5887 5886 5884 5883 5881 5880 5879 5877 5876 5875 5873 5872 5871 5870 5869 5868 5867 5866 5865 5864
5874 5877 5879 5882 5885 5887 5889 5891 5893 5895 5897 5897 5897 5898 5897 5897 5896 5896 5895 5893 5892 5890 5888 5885 5884 5883 5881 5879 5878 5877 5876 5874 5873 5872 5871 5870 5869 5867 5866 5865 5863 5862 5861 5860
5868 5872 5875 5880 5880 5882 5884 5886 5888 5890 5892 5892 5893 5893 5893 5893 5892 5891 5891 5889 5888 5886 5884 5882 5881 5879 5878 5876 5875 5873 5872 5871 5870 5869 5868 5867 5866 5864 5863 5861 5860 5858 5857 5855
5863 5866 5869 5873 5875 5877 5879 5881 5883 5885 5886 5887 5888 5888 5889 5889 5888 5887 5886 5885 5884 5882 5880 5878 5876 5874 5873 5872 5870 5869 5868 5867 5866 5864 5863 5862 5861 5860 5859 5857 5856 5854 5852 5851
5857 5860 5863 5868 5870 5871 5875 5876 5878 5879 5880 5882 5882 5883 5884 5883 5882 5881 5881 5880 5879 5878 5876 5874 5872 5870 5869 5867 5866 5864 5863 5863 5861 5860 5859 5858 5857 5855 5854 5853 5851 5849 5847 5846
5851 5854 5858 5861 5863 5866 5869 5871 5872 5873 5874 5875 5876 5877 5878 5877 5876 5876 5875 5874 5873 5872 5871 5869 5867 5866 5864 5863 5861 5860 5858 5858 5856 5855 5854 5853 5851 5850 5849 5847 5846 5844 5842 5840
5845 5848 5853 5855 5857 5860 5861 5863 5864 5866 5867 5868 5869 5870 5871 5870 5870 5870 5869 5868 5867 5866 5865 5864 5862 5860 5858 5857 5856 5854 5853 5852 5851 5849 5848 5847 5846 5844 5843 5841 5840 5838 5836 5834
5839 5843 5845 5848 5850 5852 5854 5855 5857 5859 5860 5862 5862 5863 5864 5864 5864 5863 5863 5862 5861 5860 5859 5858 5856 5855 5853 5851 5850 5849 5847 5846 5845 5844 5842 5841 5840 5838 5837 5835 5833 5831 5829 5827
5831 5834 5837 5840 5842 5845 5847 5848 5850 5851 5853 5854 5855 5856 5856 5857 5857 5856 5856 5856 5855 5854 5853 5851 5850 5848 5846 5842 5842 5841 5841 5839 5838 5837 5835 5834 5833 5831 5830 5828 5826 5824 5822 5820
5823 5827 5830 5832 5835 5837 5839 5841 5842 5844 5845 5846 5847 5848 5849 5849 5849 5849 5849 5849 5848 5847 5846 5845 5843 5841 5839 5837 5836 5835 5835 5834 5832 5831 5829 5828 5826 5825 5823 5821 5819 5817 5815 5813
5816 5820 5823 5825 5827 5829 5831 5833 5835 5836 5837 5838 5839 5840 5841 5841 5842 5842 5842 5842 5841 5840 5839 5838 5837 5835 5833 5831 5831 5829 5828 5827 5825 5823 5822 5821 5819 5817 5815 5814 5812 5809 5807 5805
5808 5812 5815 5817 5819 5821 5824 5826 5827 5828 5829 5831 5831 5832 5833 5833 5834 5834 5834 5833 5833 5832 5832 5831 5830 5829 5827 5826 5824 5823 5821 5820 5818 5816 5815 5813 5811 5809 5807 5806 5804 5802 5799 5797
5800 5804 5807 5810 5812 5814 5816 5818 5819 5820 5822 5822 5824 5825 5825 5826 5826 5826 5826 5825 5825 5824 5824 5823 5822 5821 5820 5818 5817 5815 5814 5812 5810 5808 5806 5804 5803 5801 5799 5797 5796 5793 5791 5789
5793 5796 5799 5802 5804 5807 5809 5810 5812 5813 5814 5815 5816 5817 5817 5818 5818 5818 5818 5817 5817 5816 5815 5814 5813 5812 5811 5810 5808 5807 5805 5803 5802 5799 5797 5795 5794 5792 5791 5789 5787 5784 5782 5780
5785 5788 5791 5794 5797 5799 5801 5803 5804 5805 5806 5807 5808 5808 5809 5809 5809 5809 5809 5808 5808 5808 5807 5806 5804 5803 5802 5801 5799 5798 5796 5794 5793 5790 5789 5787 5786 5784 5782 5780 5778 5775 5773 5771
5778 5781 5784 5787 5789 5791 5793 5795 5796 5797 5797 5798 5799 5800 5800 5800 5800 5800 5799 5799 5799 5798 5797 5796 5795 5794 5793 5791 5790 5789 5787 5785 5784 5782 5780 5778 5777 5775 5773 5771 5768 5766 5764 5762
5771 5774 5777 5780 5782 5783 5785 5786 5788 5789 5789 5790 5790 5791 5791 5791 5791 5791 5791 5790 5789 5789 5788 5787 5786 5784 5783 5782 5781 5780 5778 5776 5775 5773 5771 5769 5767 5766 5764 5761 5759 5757 5755 5753
5764 5767 5769 5772 5774 5776 5778 5779 5780 5780 5781 5781 5781 5782 5782 5782 5782 5781 5781 5781 5780 5780 5779 5777 5776 5775 5774 5773 5772 5770 5769 5767 5765 5764 5762 5760 5758 5756 5754 5752 5750 5748 5746 5744
5757 5760 5763 5765 5767 5768 5770 5771 5772 5772 5773 5773 5773 5773 5773 5773 5773 5773 5773 5772 5771 5770 5769 5768 5767 5766 5765 5764 5763 5761 5760 5758 5757 5755 5753 5752 5750 5748 5746 5744 5742 5740 5738 5735
5751 5753 5755 5757 5759 5760 5762 5763 5763 5764 5764 5765 5765 5765 5765 5765 5765 5764 5763 5763 5762 5761 5760 5759 5758 5757 5756 5755 5754 5753 5751 5750 5748 5747 5745 5743 5742 5740 5738 5736 5734 5732 5730 5727
5744 5746 5748 5750 5751 5753 5754 5754 5755 5756 5756 5757 5757 5757 5757 5756 5756 5756 5755 5754 5753 5752 5751 5751 5750 5749 5748 5747 5746 5744 5743 5741 5740 5738 5737 5735 5733 5732 5730 5728 5726 5724 5722 5719
5737 5739 5741 5743 5744 5745 5746 5747 5747 5748 5748 5749 5749 5749 5749 5749 5748 5748 5747 5746 5745 5744 5743 5742 5741 5740 5739 5739 5737 5736 5735 5733 5732 5731 5729 5728 5726 5724 5722 5720 5718 5716 5714 5711
5731 5733 5734 5735 5737 5738 5738 5739 5740 5740 5741 5741 5742 5742 5742 5741 5741 5740 5739 5739 5738 5737 5736 5735 5733 5733 5732 5731 5730 5728 5727 5726 5725 5723 5722 5720 5718 5716 5715 5712 5710 5708 5705 5703
5725 5726 5727 5729 5730 5731 5732 5732 5733 5733 5734 5734 5735 5735 5735 5734 5734 5733 5733 5732 5731 5730 5729 5728 5727 5726 5725 5724 5723 5722 5720 5719 5718 5716 5715 5713 5711 5709 5707 5705 5703 5700 5698 5695
5718 5720 5721 5722 5724 5725 5725 5726 5727 5727 5727 5728 5728 5728 5728 5728 5727 5727 5726 5725 5724 5724 5723 5722 5721 5720 5719 5718 5716 5715 5714 5713 5711 5710 5708 5706 5704 5702 5700 5698 5696 5693 5690 5687
5713 5714 5715 5717 5718 5719 5719 5720 5720 5721 5721 5722 5722 5722 5722 5722 5721 5721 5720 5719 5719 5718 5717 5716 5715 5714 5713 5712 5711 5710 5708 5707 5705 5703 5702 5700 5698 5696 5693 5691 5688 5685 5683 5680